Location: Bovenkerk
(52.2915°N, 4.8336°E)
Time: 21:23:03
(UTC+00:00)

Resurs 01 Rocket - Pass Details

Date: 09 April 2020
Orbit: 635 x 643 km, 98.0° (Epoch: 23 May)

Event Time Altitude Azimuth Distance (km) Brightness Sun altitude
Exits shadow 19:17:42 - 138° (SE) 2,221 3.8 -7.8°
Reaches altitude 10° 19:18:12 10° 135° (SE) 2,023 3.6 -7.9°
Maximum altitude 19:22:19 40° 66° (ENE) 945 2.2 -8.4°
Drops below altitude 10° 19:26:28 10° 358° (N) 2,041 4.6 -9.0°
Sets 19:28:47 0° 351° (N) 2,956 5.6 -9.3°
